Wind_Speed
8 11 14 15 16 10 12 20 30 35 39 34 26 29 28 28 28 29 29 29 30 33 29 22 19 16 12 7 4 6 10 12 17 16 13 13 13 15 16 17 18 16 15 15 16 16 17 19 21
11 12 15 14 13 4 15 22 30 34 37 27 22 30 21 24 24 25 25 25 27 27 27 27 27 26 23 18 13 7 3 1 4 5 7 9 10 13 14 15 16 16 17 17 18 19 19 19 18
9 9 7 8 8 8 13 18 27 33 35 24 23 26 23 22 20 27 25 25 26 24 24 25 25 26 25 22 21 15 10 6 4 2 3 5 7 8 10 12 16 17 15 15 14 14 15 17 19
10 3 0 8 9 8 9 17 23 30 36 25 23 27 26 26 25 22 25 26 27 24 25 27 27 27 25 24 22 21 21 18 14 12 9 7 6 5 4 4 4 5 9 14 16 17 16 18 17
12 5 3 4 11 6 3 14 20 26 35 23 20 28 27 26 29 27 28 33 33 29 29 28 27 26 25 24 25 24 25 26 23 17 13 10 8 5 5 5 8 12 21 17 16 12 9 10 12
13 3 2 4 6 7 2 11 17 22 30 24 21 24 26 27 27 25 29 31 32 32 32 29 27 26 24 25 29 26 28 28 24 22 20 13 12 11 9 12 11 15 23 16 12 13 15 14 13
15 3 4 3 5 5 4 9 15 20 27 24 27 24 22 25 25 24 28 30 31 31 33 30 27 27 28 29 28 25 25 31 24 27 22 19 20 18 14 12 15 20 24 21 18 12 6 3 10
18 15 9 7 4 6 6 5 12 18 22 23 25 25 22 22 22 20 24 27 28 29 30 29 27 27 28 28 28 24 23 29 30 28 28 21 22 21 22 20 20 28 22 20 18 23 20 11 12
21 13 16 12 7 12 4 3 7 12 17 24 28 23 23 24 22 20 21 23 22 26 25 29 26 27 28 28 29 32 30 32 33 30 30 22 16 21 23 24 28 28 25 25 22 23 26 22 18
24 19 7 18 12 17 8 8 8 10 14 23 27 24 24 22 22 15 17 20 22 23 25 27 27 28 27 29 28 28 32 33 35 33 33 26 22 20 23 26 29 30 28 27 25 25 29 31 29
25 18 9 14 20 23 14 10 7 7 14 20 23 27 21 20 18 18 16 16 18 20 23 25 27 27 27 30 31 31 31 35 38 37 35 31 26 24 24 21 28 34 29 27 31 31 29 30 27
32 20 11 13 19 20 18 13 5 8 12 16 19 21 27 25 18 18 17 15 16 18 19 19 22 24 27 28 29 31 32 34 37 37 38 35 31 26 23 23 28 34 32 25 29 30 28 26 24
33 21 23 16 15 17 16 16 11 9 2 6 9 15 21 25 20 15 15 15 15 16 17 19 20 22 25 26 29 29 31 31 34 36 39 37 36 33 29 25 27 33 34 29 25 24 24 27 24
43 28 21 23 24 23 18 17 12 11 11 8 4 10 14 18 19 17 15 15 16 14 17 18 19 20 24 24 27 28 29 31 32 34 38 40 39 40 36 30 28 30 33 33 27 20 19 19 22
46 37 25 28 34 29 22 22 19 16 9 5 2 3 6 13 15 18 20 14 12 13 16 18 19 18 20 22 25 25 27 26 29 32 36 39 41 39 40 39 35 31 29 29 31 26 20 16 14
53 47 41 32 33 33 28 25 23 15 11 12 8 3 2 7 11 16 20 19 13 11 12 16 16 16 20 20 21 21 24 24 26 29 33 36 39 38 38 39 38 37 35 33 30 26 24 21 20
58 50 49 42 33 33 30 29 26 18 18 13 9 8 1 2 6 9 16 20 20 13 14 13 13 15 18 18 20 22 23 24 25 26 29 28 32 35 36 36 37 35 34 33 32 32 29 25 22
65 57 50 47 39 34 32 30 24 24 22 17 14 11 6 2 2 5 10 15 17 16 11 12 13 15 18 16 16 18 24 26 25 22 26 24 28 31 33 33 32 32 33 33 32 29 28 28 27
71 67 61 42 38 33 32 28 26 21 21 18 19 16 10 7 5 5 5 9 11 14 13 13 15 15 15 17 17 16 21 25 24 22 25 24 20 27 29 29 28 29 30 31 32 29 27 26 25
72 70 66 63 52 38 31 40 35 24 27 18 22 19 15 12 9 8 5 1 7 11 13 13 14 13 13 14 16 18 16 18 19 21 21 23 23 23 25 24 27 29 27 27 29 28 26 26 25
75 72 71 67 57 54 39 36 41 36 28 32 28 24 20 16 11 11 4 2 3 5 8 10 11 11 13 14 15 17 16 15 16 18 18 19 24 23 23 24 25 26 26 26 25 24 25 25 25
73 79 76 73 67 59 50 35 40 46 40 35 34 30 30 22 17 14 10 8 4 2 1 6 9 11 13 12 15 12 12 14 15 14 16 16 20 22 21 24 22 25 27 24 23 23 23 23 25
73 80 81 76 70 64 62 42 42 45 44 41 24 38 32 26 22 20 16 9 10 8 5 1 4 8 9 11 13 14 13 12 13 13 12 16 16 18 18 20 22 24 29 31 24 23 24 23 24
80 78 81 79 75 71 66 59 54 48 49 48 46 39 36 33 27 25 25 19 14 15 10 6 4 6 4 8 8 10 12 16 13 12 11 15 17 17 16 16 17 21 25 29 29 23 24 25 24
80 75 75 81 79 78 70 61 60 56 51 50 55 55 42 40 36 29 27 28 19 20 20 14 10 8 5 3 5 5 7 9 12 13 15 14 15 16 16 16 19 20 21 24 28 30 26 25 25
81 76 72 73 79 81 75 71 62 61 52 52 50 47 44 42 35 26 23 28 21 21 19 15 16 13 10 6 4 6 5 6 8 10 12 15 14 16 17 17 17 23 20 23 25 26 27 26 25
82 78 76 71 78 85 80 79 71 66 62 56 60 52 45 45 40 33 36 26 24 24 19 16 20 16 14 13 9 8 8 7 8 9 8 10 14 15 18 18 20 21 22 20 25 23 23 24 25
84 82 80 72 74 81 82 83 76 66 61 61 56 49 48 47 44 40 35 32 32 31 26 19 20 17 18 17 12 12 13 11 8 12 13 13 10 12 12 13 16 19 21 20 25 23 22 24 24
89 86 82 76 74 81 83 82 83 78 65 62 59 50 51 48 40 43 41 38 36 34 28 25 21 17 12 11 11 7 15 16 13 10 14 15 15 12 10 12 14 17 20 20 20 22 22 22 22
93 90 85 81 77 79 82 83 80 78 80 59 66 58 53 56 50 48 44 40 37 30 28 28 25 22 18 14 10 9 9 11 15 21 21 20 19 15 11 11 12 17 19 19 18 19 22 21 22
Wind_Direction
143 86 57 59 59 0 44 13 4 6 8 14 23 30 36 45 48 59 61 66 69 74 79 83 87 100 108 130 177 233 251 268 273 274 276 270 271 272 272 274 275 274 272 269 272 272 272 264 258
146 86 67 63 30 0 347 358 10 5 10 22 24 26 33 45 46 57 63 62 65 70 76 80 83 88 92 92 92 98 111 215 251 264 281 282 277 268 263 261 264 267 269 272 274 276 277 269 261
159 114 104 53 28 301 348 359 8 7 17 30 30 30 42 49 46 57 62 65 66 65 70 76 80 79 80 79 74 72 70 60 41 355 316 301 301 291 283 276 272 274 282 283 294 295 285 271 260
142 28 84 95 8 286 355 8 3 0 18 31 37 40 48 53 53 59 66 68 67 70 75 77 76 75 71 71 65 69 63 61 54 39 20 357 315 315 316 303 326 27 348 321 313 300 287 275 264
112 92 348 163 205 250 17 13 3 4 18 39 49 46 50 53 61 66 67 72 76 74 74 76 75 72 69 65 65 67 62 51 46 32 19 19 29 38 61 64 61 34 7 331 304 279 262 265 256
119 112 95 147 203 200 307 1 6 5 18 42 53 55 49 57 62 64 67 73 74 74 74 77 75 71 69 64 57 62 61 46 42 38 36 43 61 67 85 85 66 19 3 1 345 296 273 265 239
165 137 152 143 118 156 329 6 22 9 20 49 52 56 47 59 64 68 71 73 72 73 72 71 71 67 64 59 57 61 56 45 45 38 39 58 65 73 78 61 40 7 11 13 4 359 358 229 184
151 118 145 74 225 69 299 358 40 18 19 54 59 64 51 57 67 63 64 71 73 74 73 68 64 61 61 59 54 54 44 41 40 43 45 64 70 60 53 48 32 22 29 42 47 53 45 72 128
184 153 136 133 163 231 296 299 358 23 27 49 50 63 62 49 64 68 65 66 72 71 73 69 66 63 60 59 53 50 53 45 40 44 41 48 58 57 51 42 32 28 41 65 65 55 68 76 100
181 167 151 170 179 200 244 278 319 25 43 50 46 59 65 57 60 65 66 67 72 77 72 67 62 60 56 59 55 53 51 45 41 48 47 51 54 57 49 43 35 38 49 67 65 66 70 80 78
188 188 189 191 216 216 247 260 291 347 58 63 53 57 61 68 59 57 65 75 69 69 67 64 59 56 51 54 53 53 50 44 44 49 50 54 59 56 51 46 41 44 50 64 75 77 78 93 87
189 151 172 195 207 224 235 241 262 281 84 57 63 54 60 58 57 54 56 61 63 66 68 58 54 48 50 46 48 51 52 48 46 45 50 53 58 59 53 60 50 47 59 67 85 82 82 87 97
165 167 168 198 208 214 232 228 232 247 52 356 21 44 52 57 56 54 57 54 51 51 56 55 48 51 53 43 47 47 53 51 49 49 49 52 53 57 59 63 58 54 59 72 84 86 88 87 86
196 186 190 200 210 220 209 212 220 236 243 285 6 39 40 61 59 55 51 52 49 45 51 57 49 50 56 49 49 49 53 55 51 51 52 51 56 56 57 61 63 62 59 63 73 81 83 92 93
204 207 188 196 206 209 215 217 217 228 228 234 248 57 30 75 70 60 52 53 62 47 54 58 54 48 53 49 48 48 52 55 53 50 55 55 56 59 59 58 60 63 65 66 70 76 80 86 96
207 210 200 198 212 218 224 228 221 222 219 204 242 258 34 84 68 64 57 50 65 61 56 57 52 43 52 48 48 42 48 52 60 55 55 55 56 59 62 61 59 60 61 64 67 68 70 73 74
208 211 205 206 209 208 218 223 215 219 229 216 221 246 180 80 86 64 60 50 56 61 61 64 57 50 55 52 46 45 46 46 54 55 52 55 56 57 60 60 60 60 61 61 62 65 65 65 69
206 204 199 199 197 207 214 214 219 218 215 219 220 227 230 262 134 104 65 56 52 61 56 64 71 61 62 65 55 44 48 46 51 50 53 54 55 56 59 59 58 57 57 60 61 59 60 58 58
206 207 204 195 195 208 207 205 195 207 209 218 222 219 212 229 254 169 97 68 53 63 58 65 67 73 72 69 63 51 49 46 49 49 43 48 52 49 54 57 59 59 55 56 59 58 56 59 58
208 207 210 209 209 199 208 198 183 206 208 211 221 232 228 219 227 218 171 96 65 49 61 55 66 66 72 74 68 64 55 42 45 45 39 37 47 49 46 50 54 58 55 53 59 60 55 55 56
211 209 212 213 208 209 191 209 218 209 203 210 223 225 222 217 222 227 204 209 342 48 46 62 48 58 56 61 58 57 55 55 52 42 48 38 38 44 47 44 46 56 54 53 54 53 54 52 54
213 211 212 213 210 211 202 196 210 216 213 217 221 219 231 225 200 214 210 216 244 213 70 41 31 35 42 55 55 53 45 46 56 44 52 31 31 35 40 44 39 42 48 49 47 48 49 47 51
213 213 212 214 213 209 210 197 213 212 215 220 211 220 226 227 213 216 222 212 232 221 242 299 42 6 41 46 56 51 42 36 41 44 33 24 27 29 37 35 32 34 36 39 41 42 42 43 42
214 213 212 214 213 209 209 209 215 216 217 217 224 226 220 222 215 219 237 240 259 229 232 244 253 318 0 33 43 53 35 34 30 31 22 15 20 29 28 36 34 37 36 33 33 36 36 34 37
216 215 215 214 212 213 210 209 212 216 220 223 230 228 227 218 222 223 233 257 257 235 234 238 246 285 266 346 24 42 45 25 23 24 28 17 9 23 26 23 20 22 32 34 30 33 39 32 34
218 214 215 215 212 214 211 209 210 213 215 224 224 218 228 234 227 226 252 246 242 216 234 252 242 257 260 276 304 311 338 8 8 23 24 15 4 9 19 19 12 14 14 14 27 28 35 40 35
218 215 215 213 213 214 213 213 213 218 223 226 225 232 231 222 225 222 230 229 220 205 222 252 233 254 254 259 269 299 307 333 340 348 1 19 8 4 9 14 14 11 9 9 15 22 25 32 34
218 217 217 214 212 216 214 215 213 213 224 223 225 225 224 222 222 224 229 232 219 211 220 217 248 246 257 259 277 298 302 296 317 326 332 337 350 3 4 12 21 12 9 7 5 12 15 17 23
217 217 217 215 213 214 214 216 212 209 211 220 218 221 219 223 221 226 232 225 217 212 204 216 230 236 254 263 257 322 320 305 302 305 310 309 315 325 339 354 346 357 358 1 358 -0 3 10 14
219 218 217 216 215 217 215 215 216 215 214 213 220 222 224 227 230 229 219 214 214 217 211 208 218 225 244 252 250 269 281 303 302 315 322 318 314 289 286 307 322 332 338 345 357 355 1 359 3
Height
11001 11000 10999 10999 10999 10998 10997 10994 10989 10986 10978 10970 10965 10960 10955 10952 10947 10943 10941 10939 10936 10936 10935 10936 10935 10935 10936 10937 10937 10938 10938 10937 10936 10935 10933 10932 10931 10930 10928 10928 10926 10925 10924 10922 10921 10920 10919 10918 10918
11003 11001 11001 11001 11002 11000 10997 10994 10991 10987 10980 10973 10970 10963 10960 10955 10952 10947 10946 10943 10941 10940 10940 10939 10939 10939 10940 10940 10940 10940 10940 10939 10938 10935 10934 10931 10929 10927 10925 10924 10922 10921 10921 10919 10918 10917 10916 10915 10914
11004 11003 11003 11002 11001 10999 11001 10998 10993 10988 10984 10978 10974 10969 10964 10959 10957 10952 10950 10947 10945 10945 10944 10943 10943 10943 10944 10945 10944 10942 10940 10937 10935 10933 10931 10928 10925 10923 10922 10920 10920 10920 10920 10917 10915 10912 10911 10910 10910
11004 11004 11004 11005 11005 11001 11003 11000 10995 10990 10985 10978 10976 10972 10968 10964 10961 10959 10955 10951 10949 10950 10949 10947 10946 10946 10947 10946 10944 10943 10941 10938 10935 10932 10930 10927 10923 10922 10920 10919 10919 10919 10917 10913 10909 10906 10905 10905 10905
11005 11004 11004 11004 11004 11004 11004 11003 10998 10994 10989 10984 10980 10976 10973 10970 10965 10965 10961 10956 10955 10955 10951 10950 10949 10949 10948 10947 10945 10944 10941 10938 10934 10931 10927 10925 10922 10921 10920 10919 10920 10919 10914 10908 10904 10900 10900 10900 10901
11005 11004 11004 11004 11003 11005 11006 11005 11003 11000 10996 10991 10985 10981 10978 10974 10971 10970 10966 10963 10961 10959 10957 10955 10954 10953 10951 10950 10947 10945 10942 10939 10935 10931 10927 10923 10922 10921 10920 10921 10920 10918 10912 10906 10902 10897 10894 10893 10895
11004 11003 11005 11004 11003 11004 11005 11006 11006 11002 10999 10994 10988 10983 10982 10978 10976 10976 10973 10969 10967 10965 10963 10962 10961 10958 10955 10953 10951 10949 10946 10942 10937 10933 10928 10926 10924 10923 10923 10922 10921 10917 10910 10903 10897 10892 10890 10888 10892
11003 11004 11007 11006 10998 11003 11007 11007 11008 11005 11002 10997 10990 10987 10986 10983 10981 10980 10976 10974 10973 10971 10968 10967 10966 10964 10961 10958 10956 10954 10950 10946 10941 10937 10931 10928 10926 10925 10924 10923 10922 10916 10910 10903 10900 10896 10891 10888 10890
11001 11005 11007 11010 11010 11008 11009 11009 11009 11008 11005 11000 10995 10991 10989 10987 10985 10984 10982 10979 10979 10977 10974 10972 10971 10968 10966 10962 10960 10957 10953 10949 10945 10941 10935 10931 10929 10929 10927 10925 10921 10917 10911 10905 10904 10901 10896 10895 10895
11000 11003 11005 11009 11010 11010 11010 11009 11010 11009 11007 11003 10999 10995 10991 10991 10989 10989 10987 10986 10984 10983 10979 10977 10975 10972 10970 10966 10963 10961 10957 10951 10947 10944 10940 10935 10933 10931 10929 10926 10925 10918 10912 10910 10909 10908 10905 10904 10905
10998 11001 11004 11006 11007 11008 11009 11009 11010 11009 11007 11007 11004 10998 10995 10995 10995 10993 10991 10991 10989 10987 10984 10981 10979 10977 10974 10969 10966 10964 10960 10956 10952 10948 10943 10939 10937 10933 10934 10931 10928 10922 10917 10913 10914 10914 10914 10914 10915
10993 10998 10997 11002 11004 11006 11007 11008 11010 11009 11008 11007 11009 11005 11003 11000 10998 10995 10994 10994 10992 10990 10988 10986 10983 10980 10977 10974 10970 10968 10964 10962 10958 10953 10948 10944 10941 10937 10936 10934 10930 10927 10924 10921 10920 10921 10921 10921 10923
10990 10994 10997 11000 11002 11003 11006 11007 11009 11010 11009 11007 11010 11008 11004 11002 11000 10999 10998 10998 10995 10993 10992 10989 10987 10985 10981 10978 10975 10972 10970 10967 10964 10960 10955 10951 10946 10941 10939 10938 10936 10933 10931 10928 10927 10927 10928 10926 10928
10986 10990 10993 10998 10999 11001 11004 11005 11008 11009 11009 11009 11011 11011 11009 11008 11005 11004 11002 11000 10998 10997 10995 10993 10993 10989 10986 10984 10981 10978 10974 10973 10970 10966 10962 10958 10953 10948 10945 10943 10941 10938 10936 10935 10932 10933 10934 10934 10934
10979 10986 10989 10993 10993 10998 11001 11004 11006 11008 11010 11009 11012 11014 11013 11012 11011 11008 11004 11003 11002 11001 10999 10997 10995 10993 10991 10989 10986 10983 10980 10978 10975 10971 10968 10964 10959 10955 10953 10950 10947 10944 10944 10942 10939 10939 10940 10940 10940
10970 10976 10980 10987 10990 10995 10998 11002 11005 11007 11009 11010 11011 11013 11012 11013 11012 11009 11007 11007 11005 11004 11002 11000 11000 10999 10994 10993 10992 10988 10986 10984 10980 10978 10974 10969 10967 10964 10961 10956 10955 10953 10952 10948 10947 10946 10946 10946 10944
10961 10969 10975 10981 10984 10990 10995 10998 11002 11005 11008 11010 11011 11012 11012 11012 11013 11011 11011 11009 11008 11007 11006 11005 11004 11003 10999 10998 10995 10993 10991 10989 10984 10983 10979 10977 10975 10971 10967 10964 10961 10960 10958 10955 10954 10952 10952 10951 10949
10950 10960 10966 10973 10980 10985 10989 10994 10998 11002 11004 11007 11009 11012 11011 11013 11013 11014 11013 11011 11011 11010 11010 11008 11006 11004 11003 11002 11000 10998 10996 10992 10990 10989 10987 10984 10981 10977 10974 10971 10969 10968 10965 10961 10958 10958 10957 10956 10954
10939 10949 10960 10969 10976 10981 10984 10991 10995 10999 11001 11005 11007 11010 11011 11013 11013 11014 11014 11014 11014 11014 11013 11010 11009 11007 11006 11005 11002 11001 10998 10996 10995 10993 10991 10989 10986 10983 10981 10979 10978 10975 10972 10969 10966 10966 10964 10962 10961
10930 10943 10952 10958 10967 10973 10980 10986 10990 10995 10998 11002 11002 11005 11009 11012 11013 11013 11015 11015 11018 11017 11014 11013 11013 11011 11010 11008 11007 11004 11002 11001 10998 10996 10995 10995 10992 10989 10987 10984 10982 10979 10978 10975 10972 10972 10972 10970 10967
10922 10934 10939 10947 10956 10964 10972 10979 10985 10990 10992 10998 11000 11002 11006 11010 11012 11013 11014 11015 11016 11017 11016 11017 11017 11015 11011 11008 11007 11006 11006 11005 11003 11001 11000 10999 10997 10995 10992 10989 10988 10984 10983 10980 10978 10977 10975 10974 10971
10911 10916 10925 10934 10943 10955 10964 10968 10973 10980 10987 10991 10998 11000 11002 11007 11010 11012 11014 11015 11015 11017 11018 11018 11018 11018 11014 11011 11010 11009 11007 11006 11005 11004 11003 11004 11001 10998 10997 10995 10994 10990 10987 10985 10984 10981 10980 10979 10974
10888 10897 10914 10926 10940 10948 10956 10960 10966 10972 10979 10985 10998 10996 10999 11003 11007 11010 11011 11013 11015 11016 11017 11019 11019 11018 11017 11015 11013 11011 11009 11009 11007 11007 11006 11006 11005 11003 11001 10999 10997 10996 10994 10990 10988 10985 10983 10981 10979
10875 10891 10908 10918 10932 10937 10945 10955 10958 10966 10972 10978 10982 10990 10997 10999 11003 11006 11009 11011 11014 11015 11016 11017 11017 11018 11018 11017 11015 11013 11011 11011 11010 11008 11008 11007 11006 11006 11004 11002 11000 10998 10997 10995 10992 10988 10986 10985 10984
10872 10889 10897 10906 10919 10924 10940 10947 10951 10961 10967 10971 10975 10984 10991 10995 10998 11003 11007 11008 11012 11013 11015 11016 11015 11017 11018 11018 11016 11014 11012 11012 11012 11011 11010 11009 11009 11007 11006 11004 11003 11002 11001 11000 10998 10995 10990 10988 10988
10856 10874 10887 10898 10904 10914 10929 10937 10944 10953 10959 10965 10970 10976 10982 10988 10993 10999 11001 11003 11006 11009 11012 11014 11014 11014 11015 11016 11016 11015 11014 11013 11012 11012 11012 11011 11010 11009 11009 11007 11005 11004 11004 11003 11000 10997 10994 10992 10992
10844 10863 10871 10882 10891 10904 10919 10925 10937 10943 10950 10957 10963 10968 10974 10981 10986 10991 10996 11000 11002 11004 11007 11010 11011 11012 11013 11012 11013 11013 11013 11013 11013 11013 11013 11012 11011 11010 11009 11008 11008 11008 11006 11004 11002 11000 10997 10995 10994
10832 10843 10855 10873 10882 10893 10904 10913 10928 10937 10942 10950 10955 10962 10967 10974 10980 10984 10990 10994 10997 10998 11001 11004 11008 11009 11010 11010 11010 11011 11011 11011 11012 11012 11012 11012 11012 11011 11009 11009 11009 11009 11007 11005 11004 11002 11000 10998 10995
10813 10826 10842 10857 10868 10874 10886 10900 10913 10923 10932 10937 10947 10953 10960 10967 10973 10978 10983 10986 10989 10991 10994 10999 11003 11005 11006 11005 11007 11009 11010 11009 11010 11011 11012 11012 11011 11012 11010 11009 11009 11009 11009 11007 11006 11004 11002 11000 10999
10799 10810 10826 10840 10854 10861 10874 10887 10901 10913 10921 10925 10936 10945 10950 10958 10964 10971 10976 10979 10982 10986 10989 10992 10998 11000 11001 11002 11004 11006 11007 11008 11010 11010 11010 11011 11009 11009 11008 11008 11007 11008 11009 11008 11007 11006 11004 11002 11000